Visibility
15.0 15.0 15.0 15.0 15.0 15.0 15.0 15.0 15.0 15.0 15.0 15.0 15.0 15.0 15.0 15.0 15.0 15.0 15.0 15.0 15.0 15.0 15.0 15.0 15.0 15.0 15.0 15.0 15.0 15.0 15.0 15.0 15.0 15.0 15.0 15.0 15.0 15.0 15.0 15.0 15.0 15.0 15.0
15.0 15.0 15.0 15.0 15.0 15.0 15.0 15.0 15.0 15.0 15.0 15.0 15.0 15.0 15.0 15.0 15.0 15.0 15.0 15.0 15.0 15.0 15.0 15.0 15.0 15.0 15.0 15.0 15.0 15.0 15.0 15.0 15.0 15.0 15.0 15.0 15.0 15.0 15.0 15.0 15.0 15.0 15.0
15.0 15.0 15.0 15.0 15.0 15.0 15.0 15.0 15.0 15.0 15.0 15.0 15.0 15.0 15.0 15.0 15.0 15.0 15.0 15.0 15.0 15.0 15.0 15.0 15.0 15.0 15.0 15.0 15.0 15.0 15.0 15.0 15.0 15.0 15.0 15.0 15.0 15.0 15.0 15.0 15.0 15.0 15.0
15.0 15.0 15.0 15.0 15.0 15.0 15.0 15.0 15.0 15.0 15.0 15.0 15.0 15.0 15.0 15.0 15.0 15.0 15.0 15.0 15.0 15.0 15.0 15.0 15.0 15.0 15.0 15.0 15.0 15.0 15.0 15.0 15.0 15.0 15.0 15.0 15.0 15.0 15.0 15.0 11.2 15.0 15.0
15.0 15.0 15.0 15.0 15.0 15.0 15.0 15.0 15.0 15.0 15.0 15.0 15.0 15.0 15.0 15.0 15.0 15.0 15.0 15.0 15.0 15.0 15.0 15.0 15.0 15.0 15.0 15.0 15.0 15.0 15.0 15.0 15.0 15.0 15.0 15.0 15.0 15.0 15.0 2.6 15.0 15.0 15.0
15.0 15.0 15.0 15.0 15.0 15.0 15.0 15.0 15.0 15.0 15.0 15.0 15.0 15.0 15.0 15.0 15.0 15.0 15.0 15.0 15.0 15.0 15.0 15.0 15.0 15.0 15.0 15.0 15.0 15.0 15.0 15.0 15.0 7.6 15.0 15.0 15.0 3.9 15.0 15.0 15.0 15.0 15.0
14.9 15.0 15.0 15.0 15.0 15.0 15.0 15.0 15.0 15.0 15.0 15.0 15.0 15.0 15.0 15.0 15.0 15.0 15.0 15.0 15.0 15.0 15.0 15.0 15.0 15.0 15.0 15.0 15.0 15.0 15.0 15.0 15.0 15.0 15.0 15.0 15.0 15.0 15.0 15.0 15.0 15.0 15.0
15.0 15.0 15.0 15.0 15.0 15.0 15.0 15.0 15.0 15.0 15.0 15.0 15.0 15.0 15.0 15.0 15.0 15.0 15.0 15.0 15.0 15.0 15.0 15.0 15.0 15.0 15.0 15.0 15.0 15.0 15.0 15.0 15.0 15.0 15.0 15.0 15.0 15.0 15.0 15.0 15.0 15.0 14.9
15.0 15.0 15.0 15.0 15.0 15.0 15.0 15.0 15.0 15.0 15.0 15.0 15.0 15.0 15.0 15.0 15.0 15.0 15.0 15.0 15.0 15.0 15.0 15.0 15.0 15.0 15.0 15.0 15.0 15.0 15.0 15.0 15.0 15.0 15.0 15.0 15.0 15.0 15.0 0.7 1.8 3.1 2.4
15.0 15.0 15.0 15.0 15.0 15.0 15.0 15.0 15.0 15.0 15.0 15.0 15.0 15.0 15.0 15.0 15.0 15.0 15.0 15.0 15.0 15.0 15.0 15.0 15.0 15.0 15.0 15.0 15.0 15.0 14.4 15.0 15.0 15.0 15.0 15.0 15.0 15.0 15.0 15.0 15.0 0.3 1.1
15.0 15.0 15.0 14.5 15.0 15.0 15.0 15.0 15.0 15.0 15.0 15.0 15.0 15.0 15.0 15.0 15.0 15.0 15.0 15.0 15.0 15.0 15.0 15.0 15.0 15.0 15.0 15.0 15.0 15.0 15.0 15.0 15.0 15.0 15.0 15.0 15.0 15.0 15.0 15.0 15.0 10.1 0.3
15.0 15.0 15.0 15.0 15.0 15.0 15.0 15.0 15.0 15.0 15.0 15.0 5.3 15.0 15.0 15.0 15.0 15.0 15.0 15.0 15.0 15.0 15.0 15.0 15.0 15.0 15.0 15.0 15.0 15.0 15.0 15.0 15.0 15.0 15.0 15.0 15.0 15.0 15.0 15.0 15.0 15.0 15.0
15.0 15.0 15.0 15.0 15.0 15.0 15.0 15.0 15.0 15.0 15.0 15.0 15.0 15.0 15.0 15.0 15.0 15.0 15.0 15.0 15.0 15.0 15.0 15.0 15.0 15.0 15.0 15.0 15.0 15.0 15.0 15.0 15.0 7.2 15.0 15.0 15.0 15.0 15.0 15.0 15.0 15.0 15.0
15.0 15.0 15.0 15.0 15.0 15.0 15.0 15.0 15.0 15.0 15.0 15.0 15.0 15.0 15.0 15.0 15.0 13.5 15.0 15.0 15.0 15.0 15.0 15.0 14.6 14.3 15.0 15.0 15.0 15.0 15.0 15.0 15.0 15.0 15.0 15.0 15.0 15.0 15.0 15.0 15.0 15.0 15.0
15.0 15.0 15.0 15.0 15.0 15.0 15.0 15.0 15.0 15.0 15.0 15.0 15.0 15.0 15.0 15.0 15.0 0.1 0.2 0.7 14.8 15.0 10.6 14.7 2.2 14.4 15.0 15.0 15.0 15.0 15.0 15.0 15.0 15.0 15.0 15.0 15.0 15.0 15.0 15.0 15.0 15.0 11.1
15.0 15.0 15.0 15.0 15.0 15.0 15.0 15.0 15.0 15.0 15.0 15.0 15.0 15.0 15.0 15.0 15.0 15.0 15.0 15.0 15.0 10.3 0.2 0.3 0.7 6.9 10.5 15.0 15.0 15.0 15.0 15.0 15.0 15.0 15.0 12.4 7.4 5.3 15.0 15.0 15.0 15.0 15.0
15.0 15.0 15.0 15.0 15.0 15.0 15.0 15.0 15.0 15.0 15.0 15.0 15.0 15.0 15.0 15.0 15.0 15.0 15.0 15.0 15.0 6.0 0.6 7.3 4.1 14.7 15.0 15.0 14.9 15.0 15.0 15.0 15.0 15.0 15.0 15.0 5.5 14.5 14.7 15.0 15.0 15.0 15.0
15.0 15.0 15.0 15.0 15.0 15.0 15.0 15.0 15.0 15.0 15.0 15.0 15.0 15.0 15.0 15.0 15.0 15.0 2.4 0.1 0.1 0.5 2.8 6.7 14.9 15.0 15.0 15.0 15.0 15.0 15.0 10.0 15.0 6.8 15.0 14.3 4.1 4.1 4.1 9.0 8.4 6.6 15.0
15.0 15.0 15.0 15.0 15.0 15.0 15.0 8.2 4.3 10.9 15.0 15.0 15.0 15.0 15.0 15.0 15.0 15.0 1.1 0.1 11.5 7.8 10.0 8.7 13.2 15.0 15.0 15.0 15.0 15.0 15.0 14.0 9.8 4.1 11.0 10.2 3.9 4.0 4.4 15.0 3.4 15.0 13.6
15.0 15.0 15.0 15.0 15.0 15.0 15.0 15.0 11.1 2.4 15.0 15.0 15.0 15.0 15.0 0.1 0.3 11.6 0.4 0.1 0.2 7.2 15.0 15.0 15.0 15.0 15.0 15.0 15.0 3.7 0.6 9.3 4.1 4.1 4.1 4.1 3.4 5.0 14.9 6.3 3.6 3.6 15.0
15.0 15.0 15.0 15.0 13.4 8.7 14.9 9.6 2.3 0.1 0.6 15.0 15.0 15.0 6.4 1.1 14.9 1.3 10.8 0.6 0.1 0.2 15.0 15.0 15.0 15.0 15.0 15.0 15.0 15.0 15.0 15.0 15.0 7.2 4.7 14.7 4.1 15.0 15.0 5.5 2.1 4.2 10.2
15.0 15.0 15.0 15.0 15.0 15.0 4.8 0.0 0.2 3.0 12.1 2.8 15.0 15.0 15.0 15.0 10.9 1.5 0.3 0.6 0.1 1.1 15.0 7.0 2.3 15.0 15.0 15.0 15.0 15.0 15.0 15.0 15.0 15.0 15.0 15.0 4.4 15.0 5.3 4.0 3.8 4.1 14.6
15.0 15.0 15.0 13.9 15.0 15.0 15.0 15.0 9.2 1.7 0.1 1.4 15.0 15.0 5.2 2.3 0.8 0.3 0.2 0.3 0.1 0.1 0.1 0.3 1.4 0.7 8.3 15.0 15.0 15.0 12.2 15.0 15.0 15.0 15.0 13.9 4.2 4.2 4.1 8.9 9.1 4.1 15.0
1.1 0.9 11.1 13.7 0.4 0.3 3.0 15.0 0.9 0.1 0.2 11.2 3.1 0.2 0.1 0.1 0.1 0.1 0.1 0.0 0.0 0.0 0.0 0.1 0.1 0.1 0.1 0.3 0.8 4.6 5.5 15.0 15.0 15.0 15.0 15.0 15.0 13.3 4.1 4.5 11.9 13.7 15.0
15.0 1.3 1.3 0.5 0.8 0.2 0.4 0.3 2.5 0.1 0.1 0.1 0.1 0.2 0.7 1.5 11.3 6.0 2.4 1.3 4.2 5.9 2.9 1.7 0.1 0.1 13.5 12.4 1.7 0.7 9.9 0.9 0.2 3.4 15.0 15.0 15.0 15.0 6.1 15.0 7.4 15.0 15.0
3.7 1.0 12.5 4.7 3.2 0.7 0.3 0.1 0.1 0.1 0.1 0.1 0.1 0.9 2.6 4.4 4.0 4.7 12.9 15.0 15.0 15.0 15.0 15.0 15.0 15.0 5.8 0.1 11.5 4.7 0.7 0.2 0.1 0.1 1.8 0.7 15.0 12.4 15.0 15.0 15.0 7.3 15.0